sat.trackr.live / text

‹ back to catalog

STARLINK-3150

NORAD 49452 · 2021-104AW

PAYLOAD ACTIVE UNKNOWN

§ Identity

Operator
Country
US
Launch date
2021-11-13
Launch site
AFETR
Launch vehicle
Mass (kg)
RCS (m²)

Purposes: comms

External: N2YO · Heavens-Above · Gunter

§ Orbital elements

Epoch: 2026-05-24T23:28:37.173792Z

Period
95.44 min
Inclination
53.2127°
Eccentricity
0.0001051
Mean motion
15.08839640 rev/d
Perigee alt
539.0 km
Apogee alt
540.5 km
Semi-major
6,917.9 km
B*
5.3835e-5
RAAN
236.6859°
Arg perigee
87.4249°
Mean anomaly
272.6863°
Rev number
25,029

§ Raw data

STARLINK-31501 49452U 21104AW  26144.97820803  .00000569  00000+0  53835-4 0  99932 49452  53.2127 236.6859 0001051  87.4249 272.6863 15.08839640250292

JSON: /api/v1/satellites/49452 · /tle

For live sub-satellite position, see the globe view (requires WebGL).

§ Visibility from observer

Set your observer location to see the next 7 days of passes ≥ 10°. The values pass through the URL so the page stays shareable.

No JS? Fill the form by hand. The geolocation button needs JavaScript.